Date String (YYYY-MM-DD hh:mm:ss) UTC,Instrument flags,absolute air pressure of the measurement (hPa),sample flow rate (lpm),inlet stack bypass flow (lpm),air temperature of the measurement (°C),ambient temperature measured by the external sensor (°C),aerosol sample conditioner tube jacket temperature (°C),OPC LED temperature (°C),internal box temperature (°C),relative humidity of the measurement (%),span deviation,mass concentration of particles derived from Lorenz-Mie calculation of OPC scattering (μg/m³),mass concentration of particles derived from Lorenz-Mie calculation of OPC scattering (μg/m³),mass concentration of particles derived from Lorenz-Mie calculation of OPC scattering (μg/m³)
DateTimeUTC,F1_M11,P_M11,Q1_M11,Q2_M11,T1_M11,T2_M11,T3_M11,T4_M11,T5_M11,U1_M11,ZSPAN_M11,X0_M11,X2_M11,X1_M11
2024-02-24 14:00:00,SystemResetWarning,0828.1,5.01,000.00,018.4,017.6,000.0,026.9,020.0,08.4,0000.0,0005.20,0001.72,0000.90
2024-02-24 14:01:00,SystemResetWarning,0828.1,5.00,000.00,018.4,017.6,000.0,026.9,020.0,08.3,0000.0,0005.33,0001.77,0000.90
2024-02-24 14:02:00,SystemResetWarning,0828.1,4.99,000.00,018.4,017.6,000.0,026.9,020.0,08.4,0000.0,0006.00,0001.83,0000.91
2024-02-24 14:03:00,SystemResetWarning,0828.1,5.00,000.00,018.4,017.6,000.0,026.9,020.0,08.4,0000.0,0006.74,0001.83,0000.91
2024-02-24 14:04:00,SystemResetWarning,0828.2,5.01,000.00,018.4,017.6,000.0,026.9,020.0,08.3,0000.0,0006.84,0001.85,0000.91
2024-02-24 14:05:00,SystemResetWarning,0828.2,5.00,000.00,018.4,017.6,000.0,026.9,020.0,08.3,0000.0,0006.87,0001.86,0000.93
2024-02-24 14:06:00,SystemResetWarning,0828.2,4.99,000.00,018.4,017.6,000.0,026.9,020.0,08.3,0000.0,0007.01,0001.90,0000.95
2024-02-24 14:07:00,SystemResetWarning,0828.1,4.99,000.00,018.4,017.6,000.0,026.9,020.0,08.5,0000.0,0007.05,0001.90,0000.95
2024-02-24 14:08:00,SystemResetWarning,0828.2,5.01,000.00,018.4,017.6,000.0,026.8,020.0,08.6,0000.0,0007.18,0001.93,0000.96
2024-02-24 14:09:00,SystemResetWarning,0828.2,5.01,000.00,018.4,017.6,000.0,026.8,020.0,08.7,0000.0,0007.07,0001.95,0000.96
2024-02-24 14:10:00,SystemResetWarning,0828.2,4.98,000.00,018.3,017.6,000.0,026.8,020.0,08.7,0000.0,0006.90,0001.97,0000.97
2024-02-24 14:11:00,SystemResetWarning,0828.2,4.99,000.00,018.3,017.6,000.0,026.8,020.0,08.7,0000.0,0007.47,0002.02,0000.99
2024-02-24 14:12:00,SystemResetWarning,0828.2,5.02,000.00,018.3,017.6,000.0,026.9,020.0,08.7,0000.0,0007.62,0002.03,0001.00
2024-02-24 14:13:00,SystemResetWarning,0828.2,5.01,000.00,018.3,017.6,000.0,026.9,020.0,09.0,0000.0,0007.43,0002.07,0000.99
2024-02-24 14:14:00,SystemResetWarning,0828.2,4.98,000.00,018.4,017.6,000.0,026.9,020.0,09.2,0000.0,0007.35,0002.23,0001.01
2024-02-24 14:15:00,SystemResetWarning,0828.2,5.00,000.00,018.4,017.6,000.0,026.8,020.0,08.7,0000.0,0007.32,0002.23,0001.00
2024-02-24 14:16:00,SystemResetWarning,0828.2,5.02,000.00,018.4,017.6,000.0,026.8,020.0,08.6,0000.0,0007.43,0002.28,0000.99
2024-02-24 14:17:00,SystemResetWarning,0828.1,5.00,000.00,018.4,017.7,000.0,026.8,020.0,08.7,0000.0,0007.53,0002.34,0000.99
2024-02-24 14:18:00,SystemResetWarning,0828.2,4.99,000.00,018.4,017.7,000.0,026.8,020.0,08.6,0000.0,0007.64,0002.39,0001.00
2024-02-24 14:19:00,SystemResetWarning,0828.1,4.99,000.00,018.4,017.7,000.0,026.8,020.0,08.6,0000.0,0007.49,0002.46,0001.00
2024-02-24 14:20:00,SystemResetWarning,0828.1,5.00,000.00,018.4,017.7,000.0,026.8,020.0,08.7,0000.0,0006.72,0002.46,0001.00
2024-02-24 14:21:00,SystemResetWarning,0828.1,5.00,000.00,018.4,017.7,000.0,026.8,020.0,08.6,0000.0,0006.69,0002.45,0001.00
2024-02-24 14:22:00,SystemResetWarning,0828.1,5.01,000.00,018.4,017.7,000.0,026.8,020.0,09.0,0000.0,0006.17,0002.43,0000.99
2024-02-24 14:23:00,SystemResetWarning,0828.1,5.01,000.00,018.4,017.7,000.0,026.8,020.0,08.7,0000.0,0006.39,0002.43,0000.98
2024-02-24 14:24:00,SystemResetWarning,0828.1,4.99,000.00,018.4,017.6,000.0,026.8,020.0,08.9,0000.0,0007.05,0002.43,0000.99
2024-02-24 14:25:00,SystemResetWarning,0828.1,4.98,000.00,018.4,017.6,000.0,026.8,020.0,09.3,0000.0,0006.81,0002.30,0000.99
2024-02-24 14:26:00,SystemResetWarning,0828.1,5.01,000.00,018.3,017.6,000.0,026.8,020.0,09.2,0000.0,0006.83,0002.31,0001.00
2024-02-24 14:27:00,SystemResetWarning,0828.0,5.01,000.00,018.3,017.6,000.0,026.8,020.0,08.9,0000.0,0007.07,0002.28,0001.01
2024-02-24 14:28:00,SystemResetWarning,0828.1,5.00,000.00,018.3,017.6,000.0,026.8,020.0,08.5,0000.0,0007.05,0002.24,0001.00
2024-02-24 14:29:00,SystemResetWarning,0828.1,4.99,000.00,018.3,017.6,000.0,026.8,020.0,09.9,0000.0,0007.43,0002.29,0001.01
2024-02-24 14:30:00,SystemResetWarning,0828.1,5.00,000.00,018.3,017.6,000.0,026.8,020.0,11.0,0000.0,0007.50,0002.25,0001.01
2024-02-24 14:31:00,SystemResetWarning,0828.0,5.00,000.00,018.3,017.6,000.0,026.8,020.0,10.6,0000.0,0007.82,0002.23,0001.00
2024-02-24 14:32:00,SystemResetWarning,0827.9,5.00,000.00,018.3,017.6,000.0,026.8,020.0,09.9,0000.0,0007.83,0002.25,0001.00
2024-02-24 14:33:00,SystemResetWarning,0828.0,4.99,000.00,018.3,017.6,000.0,026.8,020.0,09.4,0000.0,0007.71,0002.18,0001.01
2024-02-24 14:34:00,SystemResetWarning,0828.1,5.00,000.00,018.4,017.6,000.0,026.8,020.0,09.5,0000.0,0007.36,0002.14,0001.00
2024-02-24 14:35:00,SystemResetWarning,0828.1,5.00,000.00,018.4,017.6,000.0,026.8,020.0,09.6,0000.0,0006.95,0002.13,0001.01
2024-02-24 14:36:00,SystemResetWarning,0828.1,5.01,000.00,018.4,017.7,000.0,026.8,020.0,09.1,0000.0,0007.26,0002.09,0001.01
2024-02-24 14:37:00,SystemResetWarning,0828.1,4.99,000.00,018.4,017.7,000.0,026.8,020.0,09.2,0000.0,0006.97,0002.02,0001.02
2024-02-24 14:38:00,SystemResetWarning,0828.0,4.99,000.00,018.4,017.7,000.0,026.8,020.0,08.7,0000.0,0006.66,0002.09,0001.03
2024-02-24 14:39:00,SystemResetWarning,0828.0,5.00,000.00,018.4,017.7,000.0,026.8,020.0,08.3,0000.0,0006.68,0002.16,0001.05
2024-02-24 14:40:00,SystemResetWarning,0828.0,5.00,000.00,018.4,017.7,000.0,026.8,020.0,08.2,0000.0,0006.67,0002.08,0001.09
2024-02-24 14:41:00,SystemResetWarning,0828.1,5.01,000.00,018.4,017.7,000.0,026.8,020.1,07.8,0000.0,0007.38,0002.12,0001.16
2024-02-24 14:42:00,SystemResetWarning,0828.1,4.99,000.00,018.4,017.7,000.0,026.8,020.1,07.9,0000.0,0006.86,0002.15,0001.21
2024-02-24 14:43:00,SystemResetWarning,0828.1,4.99,000.00,018.4,017.7,000.0,026.8,020.0,08.3,0000.0,0006.84,0002.16,0001.25
2024-02-24 14:44:00,SystemResetWarning,0828.1,5.01,000.00,018.4,017.7,000.0,026.8,020.0,09.1,0000.0,0007.64,0002.19,0001.28
2024-02-24 14:45:00,SystemResetWarning,0828.1,5.00,000.00,018.4,017.7,000.0,026.8,020.0,09.8,0000.0,0007.81,0002.26,0001.32
2024-02-24 14:46:00,SystemResetWarning,0828.0,5.00,000.00,018.4,017.7,000.0,026.8,020.0,10.5,0000.0,0007.84,0002.35,0001.35
2024-02-24 14:47:00,SystemResetWarning,0828.0,5.01,000.00,018.4,017.7,000.0,026.8,020.0,10.0,0000.0,0007.59,0002.43,0001.37
2024-02-24 14:48:00,SystemResetWarning,0828.1,5.00,000.00,018.4,017.7,000.0,026.8,020.0,10.3,0000.0,0007.72,0002.50,0001.37
2024-02-24 14:49:00,SystemResetWarning,0828.1,5.00,000.00,018.4,017.7,000.0,026.8,020.0,10.3,0000.0,0007.83,0002.54,0001.37
2024-02-24 14:50:00,SystemResetWarning,0828.1,5.00,000.00,018.4,017.7,000.0,026.8,020.0,09.7,0000.0,0007.92,0002.53,0001.36
2024-02-24 14:51:00,SystemResetWarning,0828.0,5.00,000.00,018.4,017.8,000.0,026.8,020.0,10.1,0000.0,0008.35,0002.61,0001.31
2024-02-24 14:52:00,SystemResetWarning,0828.1,5.01,000.00,018.4,017.8,000.0,026.8,020.0,11.0,0000.0,0007.97,0002.69,0001.22
2024-02-24 14:53:00,SystemResetWarning,0828.0,5.00,000.00,018.4,017.8,000.0,026.8,020.0,11.5,0000.0,0008.04,0002.69,0001.18
2024-02-24 14:54:00,SystemResetWarning,0828.1,4.99,000.00,018.4,017.8,000.0,026.8,020.0,11.1,0000.0,0008.14,0002.71,0001.14
2024-02-24 14:55:00,SystemResetWarning,0828.1,4.99,000.00,018.4,017.8,000.0,026.8,020.0,10.2,0000.0,0007.75,0002.79,0001.12
2024-02-24 14:56:00,SystemResetWarning,0828.1,4.99,000.00,018.4,017.8,000.0,026.8,020.0,10.8,0000.0,0007.77,0002.80,0001.10
2024-02-24 14:57:00,SystemResetWarning,0828.2,5.00,000.00,018.4,017.8,000.0,026.8,020.0,11.8,0000.0,0007.76,0002.70,0001.08
2024-02-24 14:58:00,SystemResetWarning,0828.1,5.01,000.00,018.4,017.7,000.0,026.8,020.0,11.5,0000.0,0007.81,0002.62,0001.07
2024-02-24 14:59:00,SystemResetWarning,0827.9,5.01,000.00,018.4,017.7,000.0,026.8,020.0,11.0,0000.0,0008.29,0002.63,0001.08
